This is the latest recevied weather packets stored in our database for station/object K0CVS. If no packets are shown the sender has not sent any weather packets the latest 10 day(s).
| Time | Temp. | Humidity | Pressure | Rain* | Wind** | Luminosity | Snow |
|---|---|---|---|---|---|---|---|
| 1777319103 | 23.33° C | 64% | 1003.5 hPa | 1.78 mm | - | 124 W/m² | - |
| 1777318801 | 23.89° C | 62% | 1003.6 hPa | 1.78 mm | - | 674 W/m² | - |
| 1777318496 | 23.89° C | 63% | 1003.5 hPa | 0 mm | - | 747 W/m² | - |
| 1777318194 | 23.89° C | 64% | 1003.2 hPa | 0 mm | - | 699 W/m² | - |
| 1777317890 | 23.89° C | 63% | 1003.5 hPa | 0 mm | - | 733 W/m² | - |
| 1777317587 | 23.89° C | 62% | 1003.5 hPa | 1.27 mm | - | 321 W/m² | - |
| 1777317285 | 23.89° C | 62% | 1003.2 hPa | 0 mm | - | 709 W/m² | - |
| 1777316979 | 23.89° C | 61% | 1003.2 hPa | 0 mm | - | 723 W/m² | - |
| 1777316677 | 23.89° C | 64% | 1003.1 hPa | 0 mm | - | 530 W/m² | - |
| 1777316373 | 23.33° C | 66% | 1002.9 hPa | 1.78 mm | - | 716 W/m² | - |
| 1777316072 | 22.78° C | 67% | 1003.2 hPa | 1.78 mm | - | 725 W/m² | - |
| 1777315770 | 23.33° C | 68% | 1003 hPa | 0 mm | - | 487 W/m² | - |
| 1777315467 | 22.78° C | 71% | 1003 hPa | 0 mm | - | 313 W/m² | - |
| 1777315165 | 22.78° C | 71% | 1003.1 hPa | 1.78 mm | - | 378 W/m² | - |
| 1777314861 | 22.78° C | 71% | 1003.2 hPa | 1.78 mm | - | 257 W/m² | - |
| 1777314557 | 22.78° C | 71% | 1003 hPa | 0 mm | - | 200 W/m² | - |
| 1777314254 | 22.78° C | 71% | 1003 hPa | 1.27 mm | - | 239 W/m² | - |
| 1777313952 | 22.78° C | 71% | 1003 hPa | 1.27 mm | - | 250 W/m² | - |
| 1777313649 | 22.78° C | 72% | 1002.8 hPa | 0 mm | - | 697 W/m² | - |
| 1777313347 | 22.22° C | 74% | 1002.9 hPa | 1.78 mm | - | 500 W/m² | - |
| 1777313043 | 22.78° C | 73% | 1002.6 hPa | 1.78 mm | - | 194 W/m² | - |
| 1777312739 | 22.78° C | 73% | 1002.4 hPa | 0 mm | - | 626 W/m² | - |
| 1777312435 | 22.78° C | 72% | 1002.5 hPa | 1.27 mm | - | 875 W/m² | - |
| 1777312133 | 23.33° C | 72% | 1002.3 hPa | 1.27 mm | - | 655 W/m² | - |
| 1777311831 | 23.89° C | 69% | 1002.2 hPa | 0 mm | - | 249 W/m² | - |
* Rain latest hour (hover to see other rain measurements)
** Current wind speed in m/s (hover to see current wind gust speed)